STARLINK-11567, 62909

Orbit data source: Space-Track

STARLINK-11567, 62909 is a payload satellite owned by SpaceX/Seattle (US) in LEO that was launched on Sat, 08 Feb 2025 UTC via an FALCON 9 launch vehicle from the Air Force Eastern Test Range (AFETR). Payload-class satellites include a variety of spacecraft equipped with specific instruments for various scientific and technological missions. These include communications satellites like Starlink; space stations such as the ISS; scientific satellites like the Hubble; Earth observation satellites from companies like Planet Labs, Umbra, and HawkEye 360; GPS; miniature CubeSats for education and research; and military/defense satellites.

Loading next visibility...
Identifier
62909, 2025-027C
Orbit
LEO
Country
Flag of USUS
Related business
Manufacturer
SpaceX/Seattle
Mission
Operational Commercial Communications
Bus & Motor
STARLINK V2MD, Unknown motor
Mass
960 kg wet, ~910 kg dry
Launch date (UTC)
2025-02-08 (10 months ago)
Launch vehicle
FALCON 9
Launch site
Air Force Eastern Test Range (AFETR)
Object type
Payload
Rocket body
Debris
Shape & HBR
Box + 2 Pan, 18.1 m
Radar Cross Section
36.964 m², Large (>1 m²)

Expand to show TLE details & history
Last TLE update: 1 day ago

TLE from 1 day ago
0 STARLINK-11567
1 62909U 25027C   25346.86860694  .00210867  00000-0  15994-2 0  9993
2 62909  42.9997 151.3344 0001693 291.6446  68.4242 15.70930668 49497
Epoch: 2025-12-12T20:50Z
TLE epoch observation values (Epoch: 2025-12-12T20:50:47.639Z)
Latitude
0.00003°
Longitude
116.83188°
Altitude
355.588 km
Speed
7.698 km/s
True Right ascension
10h 05m 20s
True Declination
0° 00' 00"
Sunlit
Object was in daylight at epoch
Visualization orbit readout
Latitude
Unknown
Longitude
Unknown
Altitude
Unknown
Speed
Unknown
Apparent Right ascension
Unknown
Apparent Declination
Unknown
Sunlit
N/A
Visualization observer readout
Local Sidereal Time
23:55:11
Azimuth
Unknown
Elevation
Unknown
Doppler factor
Unknown
Orbital elements
Apogee altitude
359.358 km
Perigee altitude
357.077 km
Semi-major axis
6,736.355 km
Eccentricity
0.00017
Inclination
42.9997°
RAAN
151.3344°
Arg. of periapsis
291.6446°
True anomaly
68.44224°
Mean anomaly
68.4242°
Eccentric anomaly
68.43322°
Mean motion
3.9256 °/min
Orbital period
91.71 mins
BSTAR
0.0015994
Loading maneuver chart data...
Computing Atmospheric mass density...
Loading historical data...
Loading historical data...
Loading historical data...
Loading historical data...
Loading historical data...
Loading historical data...
Loading historical data...

Documentation

Showing up to 5 results
|